• In Uzbekistan
  • List of Countries
  • For 7 days
  • Water Temperature
  • Satellite Maps
  • Weather Map
  • Weather Widgets
  • user-avatar
    Login

    Hourly Weather Ubach-Palenberg

    Today, 23 November, Thursday

    Time Temperature Precipitation Wind Pressure Humidity
    00:00 +9°C° 0 mm 6 mps 743 mmHg 58%
    01:00 +9°C° 0 mm 7 mps 742 mmHg 60%
    02:00 +9°C° 0 mm 7 mps 742 mmHg 62%
    03:00 +9°C° 0 mm 7 mps 741 mmHg 63%
    04:00 +9°C° 0 mm 7 mps 741 mmHg 64%
    05:00 +10°C° 0 mm 8 mps 741 mmHg 64%
    06:00 +10°C° 0 mm 8 mps 741 mmHg 65%
    07:00 +10°C° 0 mm 8 mps 741 mmHg 63%
    08:00 +11°C° 0 mm 9 mps 741 mmHg 62%
    09:00 +12°C° 0 mm 9 mps 741 mmHg 61%
    10:00 +12°C° 0 mm 9 mps 742 mmHg 61%
    11:00 +13°C° 0 mm 10 mps 742 mmHg 62%
    12:00 +14°C° 0 mm 10 mps 742 mmHg 63%
    13:00 +13°C° 0.2 mm 9 mps 743 mmHg 67%
    14:00 +13°C° 0.2 mm 8 mps 743 mmHg 71%
    15:00 +12°C° 0.2 mm 7 mps 744 mmHg 75%
    16:00 +13°C° 0.2 mm 6 mps 745 mmHg 78%
    17:00 +12°C° 0.2 mm 5 mps 745 mmHg 81%
    18:00 +11°C° 0.2 mm 4 mps 746 mmHg 84%
    19:00 +11°C° 0 mm 4 mps 747 mmHg 83%
    20:00 +10°C° 0 mm 3 mps 747 mmHg 82%
    21:00 +10°C° 0 mm 3 mps 747 mmHg 82%
    22:00 +10°C° 0 mm 3 mps 747 mmHg 83%
    23:00 +10°C° 0 mm 3 mps 747 mmHg 83%

    Tomorrow, 24 November, Friday

    Time Temperature Precipitation Wind Pressure Humidity
    00:00 +9°C° 0 mm 2 mps 747 mmHg 84%
    01:00 +10°C° 0.2 mm 3 mps 747 mmHg 85%
    02:00 +10°C° 0.2 mm 4 mps 746 mmHg 85%
    03:00 +10°C° 0.2 mm 5 mps 745 mmHg 86%
    04:00 +10°C° 0.4 mm 6 mps 745 mmHg 85%
    05:00 +11°C° 0.4 mm 7 mps 744 mmHg 83%
    06:00 +11°C° 0.4 mm 8 mps 744 mmHg 82%
    07:00 +11°C° 0.1 mm 8 mps 744 mmHg 81%
    08:00 +11°C° 0.1 mm 7 mps 744 mmHg 80%
    09:00 +11°C° 0.1 mm 7 mps 745 mmHg 80%
    10:00 +10°C° 0.4 mm 7 mps 745 mmHg 81%
    11:00 +10°C° 0.4 mm 7 mps 746 mmHg 82%
    12:00 +9°C° 0.4 mm 6 mps 746 mmHg 83%
    13:00 +8°C° 0.1 mm 5 mps 747 mmHg 82%
    14:00 +7°C° 0.1 mm 4 mps 748 mmHg 81%
    15:00 +7°C° 0.1 mm 3 mps 749 mmHg 80%
    16:00 +7°C° 0.1 mm 3 mps 749 mmHg 81%
    17:00 +7°C° 0.1 mm 2 mps 750 mmHg 81%
    18:00 +6°C° 0.1 mm 2 mps 751 mmHg 82%
    19:00 +6°C° 0 mm 2 mps 751 mmHg 83%
    20:00 +7°C° 0 mm 1 mps 751 mmHg 84%
    21:00 +6°C° 0 mm 1 mps 752 mmHg 85%
    22:00 +6°C° 0 mm 1 mps 752 mmHg 86%
    23:00 +6°C° 0 mm 1 mps 751 mmHg 86%

    Day after tomorrow, 25 November, Saturday

    Time Temperature Precipitation Wind Pressure Humidity
    00:00 +6°C° 0 mm 1 mps 751 mmHg 86%
    01:00 +5°C° 0 mm 0 mps 751 mmHg 86%
    02:00 +4°C° 0 mm 0 mps 751 mmHg 86%
    03:00 +4°C° 0 mm 0 mps 751 mmHg 86%
    04:00 +4°C° 0 mm 0 mps 751 mmHg 87%
    05:00 +4°C° 0 mm 0 mps 750 mmHg 88%
    06:00 +3°C° 0 mm 0 mps 750 mmHg 88%
    07:00 +4°C° 0 mm 0 mps 750 mmHg 86%
    08:00 +4°C° 0 mm 0 mps 750 mmHg 85%
    09:00 +6°C° 0 mm 1 mps 750 mmHg 83%
    10:00 +6°C° 0.1 mm 1 mps 750 mmHg 81%
    11:00 +5°C° 0.1 mm 2 mps 750 mmHg 79%
    12:00 +6°C° 0.1 mm 2 mps 750 mmHg 77%
    13:00 +4°C° 0.5 mm 3 mps 750 mmHg 78%
    14:00 +4°C° 0.5 mm 3 mps 750 mmHg 78%
    15:00 +4°C° 0.5 mm 3 mps 751 mmHg 79%
    16:00 +3°C° 0.2 mm 3 mps 751 mmHg 79%
    17:00 +3°C° 0.2 mm 3 mps 751 mmHg 79%
    18:00 +2°C° 0.2 mm 3 mps 752 mmHg 79%
    19:00 +2°C° 0 mm 3 mps 753 mmHg 80%
    20:00 +1°C° 0 mm 4 mps 753 mmHg 82%
    21:00 0°C° 0 mm 4 mps 754 mmHg 83%
    22:00 0°C° 0 mm 4 mps 754 mmHg 83%
    23:00 0°C° 0 mm 5 mps 755 mmHg 82%

    26 November, Sunday

    Time Temperature Precipitation Wind Pressure Humidity
    00:00 0°C° 0 mm 5 mps 755 mmHg 82%
    01:00 -1°C° 0.1 mm 5 mps 755 mmHg 81%
    02:00 -1°C° 0.1 mm 5 mps 755 mmHg 81%
    03:00 -1°C° 0.1 mm 5 mps 755 mmHg 81%
    04:00 -1°C° 0 mm 5 mps 755 mmHg 81%
    05:00 -1°C° 0 mm 5 mps 755 mmHg 81%
    06:00 -1°C° 0 mm 5 mps 756 mmHg 81%
    07:00 -1°C° 0 mm 5 mps 756 mmHg 79%
    08:00 0°C° 0 mm 5 mps 756 mmHg 78%
    09:00 -1°C° 0 mm 6 mps 756 mmHg 76%
    10:00 +1°C° 0 mm 6 mps 756 mmHg 74%
    11:00 +2°C° 0 mm 6 mps 756 mmHg 72%
    12:00 +3°C° 0 mm 6 mps 757 mmHg 71%
    13:00 +3°C° 0 mm 6 mps 757 mmHg 72%
    14:00 +2°C° 0 mm 5 mps 757 mmHg 74%
    15:00 +2°C° 0 mm 5 mps 757 mmHg 75%
    16:00 +2°C° 0 mm 5 mps 757 mmHg 77%
    17:00 +2°C° 0 mm 5 mps 757 mmHg 79%
    18:00 +1°C° 0 mm 5 mps 757 mmHg 81%
    19:00 +1°C° 0.1 mm 5 mps 757 mmHg 82%
    20:00 +1°C° 0.1 mm 5 mps 757 mmHg 83%
    21:00 +1°C° 0.1 mm 5 mps 757 mmHg 83%
    22:00 +1°C° 0.1 mm 5 mps 757 mmHg 84%
    23:00 +1°C° 0.1 mm 5 mps 757 mmHg 85%

    27 November, Monday

    Time Temperature Precipitation Wind Pressure Humidity
    00:00 +1°C° 0.1 mm 5 mps 757 mmHg 86%
    01:00 +1°C° 0 mm 5 mps 757 mmHg 87%
    02:00 +1°C° 0 mm 5 mps 757 mmHg 87%
    03:00 +1°C° 0 mm 5 mps 757 mmHg 88%
    04:00 0°C° 0 mm 5 mps 757 mmHg 88%
    05:00 0°C° 0 mm 5 mps 757 mmHg 88%
    06:00 0°C° 0 mm 5 mps 757 mmHg 89%
    07:00 0°C° 0 mm 5 mps 757 mmHg 86%
    08:00 +1°C° 0 mm 5 mps 757 mmHg 83%
    09:00 +1°C° 0 mm 5 mps 756 mmHg 81%
    10:00 +2°C° 0 mm 6 mps 756 mmHg 78%
    11:00 +3°C° 0 mm 6 mps 755 mmHg 76%
    12:00 +4°C° 0 mm 6 mps 754 mmHg 73%
    13:00 +3°C° 0.5 mm 7 mps 753 mmHg 75%
    14:00 +3°C° 0.5 mm 7 mps 752 mmHg 78%
    15:00 +2°C° 0.5 mm 8 mps 752 mmHg 80%
    16:00 +4°C° 0.5 mm 8 mps 751 mmHg 82%
    17:00 +4°C° 0.5 mm 7 mps 751 mmHg 84%
    18:00 +4°C° 0.5 mm 7 mps 751 mmHg 86%
    19:00 +4°C° 0.2 mm 7 mps 751 mmHg 85%
    20:00 +4°C° 0.2 mm 6 mps 751 mmHg 85%
    21:00 +5°C° 0.2 mm 5 mps 751 mmHg 84%
    22:00 +5°C° 0.1 mm 5 mps 750 mmHg 85%
    23:00 +3°C° 0.1 mm 5 mps 750 mmHg 86%

    28 November, Tuesday

    Time Temperature Precipitation Wind Pressure Humidity
    00:00 +3°C° 0.1 mm 5 mps 749 mmHg 86%
    01:00 +3°C° 0 mm 5 mps 749 mmHg 87%
    02:00 +3°C° 0 mm 5 mps 749 mmHg 87%
    03:00 +3°C° 0 mm 5 mps 748 mmHg 88%
    04:00 +3°C° 0.3 mm 5 mps 748 mmHg 89%
    05:00 +3°C° 0.3 mm 5 mps 747 mmHg 90%
    06:00 +4°C° 0.3 mm 4 mps 747 mmHg 91%
    07:00 +5°C° 0.2 mm 5 mps 746 mmHg 90%
    08:00 +5°C° 0.2 mm 5 mps 746 mmHg 89%
    09:00 +5°C° 0.2 mm 5 mps 745 mmHg 87%
    10:00 +4°C° 0.8 mm 6 mps 744 mmHg 86%
    11:00 +4°C° 0.8 mm 7 mps 743 mmHg 85%
    12:00 +4°C° 0.8 mm 7 mps 743 mmHg 84%
    13:00 +4°C° 0.2 mm 7 mps 742 mmHg 83%
    14:00 +4°C° 0.2 mm 6 mps 742 mmHg 81%
    15:00 +5°C° 0.2 mm 5 mps 741 mmHg 79%
    16:00 +5°C° 0.1 mm 5 mps 742 mmHg 80%
    17:00 +5°C° 0.1 mm 5 mps 742 mmHg 81%
    18:00 +5°C° 0.1 mm 5 mps 742 mmHg 81%
    19:00 +3°C° 0 mm 5 mps 743 mmHg 84%
    20:00 +3°C° 0 mm 4 mps 743 mmHg 88%
    21:00 +3°C° 0 mm 3 mps 743 mmHg 91%
    22:00 +2°C° 0 mm 3 mps 743 mmHg 92%
    23:00 +3°C° 0 mm 2 mps 743 mmHg 92%
    Show more